Terminal Aerodrome Forecast
Issued by NWS Cleveland, OH

Home | Current Version | Previous Version | Graphics & Text | Print | Product List | Glossary On
Versions: 1 2 3 4 5 6 7 8 9 10 11 12 13 14 15 16 17 18 19 20 21 22 23 24 25
000
FTUS41 KCLE 312000 AAA
TAFMFD
TAF AMD
KMFD 312000Z 3120/0118 21010KT P6SM SCT015 OVC035
     FM010300 20005KT 3SM BR BKN009
     FM011600 21010KT 5SM BR OVC012=

USA.gov is the U.S. government's official web portal to all federal, state and local government web resources and services.